Time,TemperatureF,DewpointF,PressureIn,WindDirection,WindDirectionDegrees,WindSpeedMPH,WindSpeedGustMPH,Humidity,HourlyPrecipIn,Conditions,Clouds,dailyrainin,SoftwareType,DateUTC
2013-03-05 00:01:00,30.0,28.0,29.87,SW,229,0.0,1.0,91,0.00,,,0.01,,2013-03-05 08:01:00,
2013-03-05 00:11:00,30.0,28.0,29.87,SW,229,0.0,1.0,91,0.00,,,0.01,,2013-03-05 08:11:00,
2013-03-05 00:21:00,30.0,28.0,29.87,SW,229,0.0,0.0,91,0.00,,,0.01,,2013-03-05 08:21:00,
2013-03-05 00:31:00,30.0,28.0,29.87,SW,229,0.0,0.0,91,0.00,,,0.01,,2013-03-05 08:31:00,
2013-03-05 00:41:00,30.0,28.0,29.87,SW,229,0.0,0.0,91,0.00,,,0.01,,2013-03-05 08:41:00,
2013-03-05 00:52:00,30.0,28.0,29.86,SW,229,0.0,0.0,91,0.00,,,0.01,,2013-03-05 08:52:00,
2013-03-05 01:01:00,30.0,28.0,29.86,SW,229,0.0,0.0,91,0.00,,,0.01,,2013-03-05 09:01:00,
2013-03-05 01:11:00,30.0,28.0,29.86,SW,229,0.0,0.0,91,0.00,,,0.01,,2013-03-05 09:11:00,
2013-03-05 01:21:00,29.0,27.0,29.85,SW,229,0.0,0.0,91,0.00,,,0.01,,2013-03-05 09:21:00,
2013-03-05 01:31:00,29.0,27.0,29.86,SW,229,0.0,0.0,91,0.00,,,0.01,,2013-03-05 09:31:00,
2013-03-05 01:42:00,29.0,27.0,29.86,SW,229,0.0,0.0,91,0.00,,,0.01,,2013-03-05 09:42:00,
2013-03-05 01:52:00,29.0,27.0,29.86,SW,229,0.0,0.0,91,0.00,,,0.01,,2013-03-05 09:52:00,
2013-03-05 02:01:00,29.0,27.0,29.86,SW,229,0.0,0.0,91,0.00,,,0.01,,2013-03-05 10:01:00,
2013-03-05 02:11:00,29.0,27.0,29.86,SW,229,0.0,0.0,91,0.00,,,0.01,,2013-03-05 10:11:00,
2013-03-05 02:21:00,29.0,27.0,29.86,SW,229,0.0,0.0,91,0.00,,,0.01,,2013-03-05 10:21:00,
2013-03-05 02:31:00,29.0,27.0,29.85,SW,229,0.0,0.0,91,0.00,,,0.01,,2013-03-05 10:31:00,
2013-03-05 02:41:00,29.0,27.0,29.85,SW,229,0.0,0.0,91,0.00,,,0.01,,2013-03-05 10:41:00,
2013-03-05 02:52:00,29.0,27.0,29.84,SW,229,0.0,0.0,91,0.00,,,0.01,,2013-03-05 10:52:00,
2013-03-05 03:01:00,29.0,27.0,29.84,SW,229,0.0,0.0,92,0.00,,,0.01,,2013-03-05 11:01:00,
2013-03-05 03:11:00,29.0,27.0,29.84,SW,229,0.0,0.0,92,0.00,,,0.01,,2013-03-05 11:11:00,
2013-03-05 03:21:00,29.0,27.0,29.83,SW,229,0.0,0.0,92,0.00,,,0.01,,2013-03-05 11:21:00,
2013-03-05 03:32:00,30.0,28.0,29.82,SW,229,0.0,0.0,92,0.00,,,0.01,,2013-03-05 11:32:00,
2013-03-05 03:41:00,30.0,28.0,29.82,SW,229,0.0,0.0,92,0.00,,,0.01,,2013-03-05 11:41:00,
2013-03-05 03:52:00,30.0,28.0,29.82,SW,229,0.0,0.0,92,0.00,,,0.01,,2013-03-05 11:52:00,
2013-03-05 04:02:00,30.0,28.0,29.82,SW,229,0.0,0.0,92,0.00,,,0.01,,2013-03-05 12:02:00,
2013-03-05 04:11:00,30.0,28.0,29.82,SW,229,0.0,0.0,92,0.00,,,0.01,,2013-03-05 12:11:00,
2013-03-05 04:22:00,31.0,29.0,29.82,SW,229,0.0,0.0,92,0.00,,,0.01,,2013-03-05 12:22:00,
2013-03-05 04:32:00,31.0,29.0,29.81,SW,229,0.0,0.0,92,0.00,,,0.01,,2013-03-05 12:32:00,
2013-03-05 04:42:00,31.0,29.0,29.81,SW,229,0.0,0.0,92,0.00,,,0.01,,2013-03-05 12:42:00,
2013-03-05 04:52:00,31.0,29.0,29.81,SW,229,0.0,0.0,92,0.00,,,0.01,,2013-03-05 12:52:00,
2013-03-05 05:01:00,31.0,29.0,29.81,SW,229,0.0,0.0,92,0.00,,,0.01,,2013-03-05 13:01:00,
2013-03-05 05:11:00,31.0,29.0,29.81,SW,229,0.0,0.0,92,0.00,,,0.01,,2013-03-05 13:11:00,
2013-03-05 05:21:00,31.0,29.0,29.80,SW,229,0.0,0.0,92,0.00,,,0.01,,2013-03-05 13:21:00,
2013-03-05 05:31:00,31.0,29.0,29.79,SW,229,0.0,0.0,92,0.00,,,0.01,,2013-03-05 13:31:00,
2013-03-05 05:41:00,31.0,29.0,29.79,SW,229,0.0,0.0,92,0.00,,,0.01,,2013-03-05 13:41:00,
2013-03-05 05:52:00,31.0,29.0,29.78,SW,229,0.0,0.0,91,0.00,,,0.01,,2013-03-05 13:52:00,
2013-03-05 06:02:00,32.0,30.0,29.78,SW,229,0.0,0.0,92,0.00,,,0.01,,2013-03-05 14:02:00,
2013-03-05 06:11:00,32.0,30.0,29.78,SW,229,0.0,0.0,92,0.00,,,0.01,,2013-03-05 14:11:00,
2013-03-05 06:21:00,32.0,30.0,29.76,SW,229,0.0,0.0,92,0.00,,,0.01,,2013-03-05 14:21:00,
2013-03-05 06:31:00,32.0,30.0,29.76,SW,229,0.0,0.0,92,0.00,,,0.01,,2013-03-05 14:31:00,
2013-03-05 06:41:00,32.0,30.0,29.76,SW,229,0.0,0.0,92,0.00,,,0.01,,2013-03-05 14:41:00,
2013-03-05 06:52:00,33.0,31.0,29.77,SW,229,0.0,1.0,91,0.00,,,0.01,,2013-03-05 14:52:00,
2013-03-05 07:01:00,33.0,31.0,29.77,SW,229,0.0,1.0,91,0.00,,,0.01,,2013-03-05 15:01:00,
2013-03-05 07:11:00,33.0,31.0,29.77,SW,229,0.0,1.0,91,0.00,,,0.01,,2013-03-05 15:11:00,
2013-03-05 07:21:00,33.0,31.0,29.78,SW,229,0.0,0.0,91,0.00,,,0.01,,2013-03-05 15:21:00,
2013-03-05 07:31:00,33.0,30.0,29.78,SW,229,0.0,1.0,90,0.00,,,0.01,,2013-03-05 15:31:00,
2013-03-05 07:42:00,33.0,30.0,29.78,SW,229,0.0,1.0,90,0.00,,,0.01,,2013-03-05 15:42:00,
2013-03-05 07:52:00,34.0,31.0,29.78,SW,229,0.0,1.0,89,0.00,,,0.01,,2013-03-05 15:52:00,
2013-03-05 08:01:00,34.0,31.0,29.79,SW,229,0.0,1.0,88,0.00,,,0.01,,2013-03-05 16:01:00,
2013-03-05 08:11:00,34.0,31.0,29.79,SW,229,0.0,1.0,88,0.00,,,0.01,,2013-03-05 16:11:00,
2013-03-05 08:21:00,34.0,31.0,29.80,SW,229,0.0,1.0,87,0.00,,,0.01,,2013-03-05 16:21:00,
2013-03-05 08:31:00,34.0,31.0,29.80,SW,229,0.0,3.0,87,0.00,,,0.01,,2013-03-05 16:31:00,
2013-03-05 08:41:00,34.0,31.0,29.80,SW,229,0.0,3.0,87,0.00,,,0.01,,2013-03-05 16:41:00,
2013-03-05 08:52:00,35.0,32.0,29.80,SW,229,0.0,1.0,87,0.00,,,0.01,,2013-03-05 16:52:00,
2013-03-05 09:01:00,35.0,32.0,29.81,SW,229,0.0,1.0,87,0.00,,,0.01,,2013-03-05 17:01:00,
2013-03-05 09:11:00,35.0,32.0,29.81,SW,229,0.0,1.0,87,0.00,,,0.01,,2013-03-05 17:11:00,
2013-03-05 09:21:00,36.0,33.0,29.80,SW,229,0.0,2.0,87,0.00,,,0.01,,2013-03-05 17:21:00,
2013-03-05 09:32:00,36.0,32.0,29.80,SW,229,0.0,0.0,86,0.00,,,0.01,,2013-03-05 17:32:00,
2013-03-05 09:41:00,36.0,32.0,29.80,SW,229,0.0,0.0,86,0.00,,,0.01,,2013-03-05 17:41:00,
2013-03-05 09:52:00,37.0,32.0,29.80,SW,229,0.0,1.0,82,0.00,,,0.00,,2013-03-05 17:52:00,
2013-03-05 10:01:00,38.0,33.0,29.81,SW,229,0.0,1.0,81,0.00,,,0.00,,2013-03-05 18:01:00,
2013-03-05 10:11:00,38.0,33.0,29.81,SW,229,0.0,1.0,81,0.00,,,0.00,,2013-03-05 18:11:00,
2013-03-05 10:21:00,39.0,33.0,29.80,SW,223,0.0,1.0,78,0.00,,,0.00,,2013-03-05 18:21:00,
2013-03-05 10:31:00,40.0,32.0,29.80,SW,223,0.0,1.0,74,0.00,,,0.00,,2013-03-05 18:31:00,
2013-03-05 10:41:00,40.0,32.0,29.80,SW,223,0.0,1.0,74,0.00,,,0.00,,2013-03-05 18:41:00,
2013-03-05 10:53:00,42.0,33.0,29.79,NNE,13,0.0,1.0,71,0.00,,,0.00,,2013-03-05 18:53:00,
2013-03-05 11:01:00,42.0,33.0,29.78,NNE,13,0.0,1.0,71,0.00,,,0.00,,2013-03-05 19:01:00,
2013-03-05 11:11:00,42.0,33.0,29.78,NNE,13,0.0,1.0,71,0.00,,,0.00,,2013-03-05 19:11:00,
2013-03-05 11:21:00,45.0,33.0,29.78,NNE,14,0.0,2.0,63,0.00,,,0.00,,2013-03-05 19:21:00,
2013-03-05 11:31:00,46.0,33.0,29.78,NNE,32,0.0,3.0,61,0.00,,,0.00,,2013-03-05 19:31:00,
2013-03-05 11:41:00,46.0,33.0,29.78,NNE,32,0.0,3.0,61,0.00,,,0.00,,2013-03-05 19:41:00,
2013-03-05 11:52:00,47.0,34.0,29.78,NNE,32,0.0,1.0,60,0.00,,,0.00,,2013-03-05 19:52:00,
2013-03-05 12:01:00,46.0,32.0,29.77,NNE,32,0.0,2.0,59,0.00,,,0.00,,2013-03-05 20:01:00,
2013-03-05 12:11:00,47.0,33.0,29.76,SW,227,1.0,3.0,59,0.00,,,0.00,,2013-03-05 20:11:00,
2013-03-05 12:21:00,47.0,33.0,29.76,SW,227,1.0,3.0,59,0.00,,,0.00,,2013-03-05 20:21:00,
2013-03-05 12:32:00,47.0,35.0,29.77,SW,234,0.0,3.0,62,0.00,,,0.00,,2013-03-05 20:32:00,
2013-03-05 12:41:00,47.0,35.0,29.77,SW,234,0.0,3.0,62,0.00,,,0.00,,2013-03-05 20:41:00,
2013-03-05 12:52:00,48.0,36.0,29.77,SSE,148,0.0,2.0,62,0.00,,,0.00,,2013-03-05 20:52:00,
2013-03-05 13:01:00,47.0,35.0,29.77,SSW,207,1.0,4.0,62,0.00,,,0.00,,2013-03-05 21:01:00,
2013-03-05 13:11:00,47.0,35.0,29.77,SSW,207,1.0,4.0,62,0.00,,,0.00,,2013-03-05 21:11:00,
2013-03-05 13:21:00,47.0,34.0,29.77,West,268,1.0,4.0,61,0.00,,,0.00,,2013-03-05 21:21:00,
2013-03-05 13:31:00,46.0,34.0,29.76,West,266,0.0,3.0,62,0.00,,,0.00,,2013-03-05 21:31:00,
2013-03-05 13:41:00,46.0,34.0,29.76,West,266,0.0,3.0,62,0.00,,,0.00,,2013-03-05 21:41:00,
2013-03-05 13:52:00,46.0,35.0,29.76,WSW,254,0.0,2.0,64,0.00,,,0.00,,2013-03-05 21:52:00,
2013-03-05 14:01:00,46.0,34.0,29.76,WSW,254,0.0,1.0,63,0.00,,,0.00,,2013-03-05 22:01:00,
2013-03-05 14:11:00,46.0,34.0,29.76,WSW,254,0.0,1.0,63,0.00,,,0.00,,2013-03-05 22:11:00,
2013-03-05 14:21:00,47.0,36.0,29.75,NNW,346,0.0,2.0,65,0.00,,,0.00,,2013-03-05 22:21:00,
2013-03-05 14:31:00,47.0,36.0,29.75,NW,308,0.0,2.0,65,0.00,,,0.00,,2013-03-05 22:31:00,
2013-03-05 14:41:00,47.0,36.0,29.75,NW,308,0.0,2.0,65,0.00,,,0.00,,2013-03-05 22:41:00,
2013-03-05 14:52:00,47.0,36.0,29.75,WNW,282,0.0,2.0,65,0.00,,,0.00,,2013-03-05 22:52:00,
2013-03-05 15:01:00,47.0,35.0,29.75,WNW,284,0.0,1.0,64,0.00,,,0.00,,2013-03-05 23:01:00,
2013-03-05 15:11:00,47.0,35.0,29.75,WNW,284,0.0,1.0,64,0.00,,,0.00,,2013-03-05 23:11:00,
2013-03-05 15:21:00,47.0,36.0,29.74,NE,47,0.0,1.0,65,0.00,,,0.00,,2013-03-05 23:21:00,
2013-03-05 15:32:00,47.0,36.0,29.75,NE,46,0.0,1.0,66,0.00,,,0.00,,2013-03-05 23:32:00,
2013-03-05 15:41:00,47.0,36.0,29.75,NE,46,0.0,1.0,66,0.00,,,0.00,,2013-03-05 23:41:00,
2013-03-05 15:52:00,47.0,37.0,29.75,NE,46,0.0,1.0,69,0.00,,,0.00,,2013-03-05 23:52:00,
2013-03-05 16:01:00,47.0,38.0,29.74,NE,46,1.0,2.0,70,0.00,,,0.00,,2013-03-06 00:01:00,
2013-03-05 16:11:00,47.0,38.0,29.74,NE,46,1.0,2.0,70,0.00,,,0.00,,2013-03-06 00:11:00,
2013-03-05 16:21:00,46.0,37.0,29.74,NNW,330,0.0,2.0,72,0.00,,,0.00,,2013-03-06 00:21:00,
2013-03-05 16:32:00,46.0,38.0,29.74,NNW,330,1.0,2.0,74,0.00,,,0.00,,2013-03-06 00:32:00,
2013-03-05 16:41:00,46.0,38.0,29.74,NNW,330,1.0,2.0,74,0.00,,,0.00,,2013-03-06 00:41:00,
2013-03-05 16:52:00,46.0,39.0,29.74,West,268,0.0,4.0,77,0.00,,,0.00,,2013-03-06 00:52:00,
2013-03-05 17:01:00,45.0,38.0,29.74,West,260,0.0,2.0,77,0.00,,,0.00,,2013-03-06 01:01:00,
2013-03-05 17:11:00,45.0,38.0,29.74,West,260,0.0,2.0,77,0.00,,,0.00,,2013-03-06 01:11:00,
2013-03-05 17:21:00,45.0,39.0,29.73,West,260,0.0,1.0,79,0.00,,,0.00,,2013-03-06 01:21:00,
2013-03-05 17:31:00,45.0,39.0,29.73,West,260,0.0,0.0,79,0.00,,,0.00,,2013-03-06 01:31:00,
2013-03-05 17:41:00,45.0,39.0,29.73,West,260,0.0,0.0,79,0.00,,,0.00,,2013-03-06 01:41:00,
2013-03-05 17:52:00,45.0,39.0,29.73,West,260,0.0,1.0,78,0.00,,,0.00,,2013-03-06 01:52:00,
2013-03-05 18:01:00,44.0,38.0,29.74,West,260,0.0,1.0,78,0.00,,,0.00,,2013-03-06 02:01:00,
2013-03-05 18:11:00,44.0,38.0,29.74,West,260,0.0,1.0,78,0.00,,,0.00,,2013-03-06 02:11:00,
2013-03-05 18:21:00,44.0,38.0,29.73,West,260,0.0,2.0,78,0.00,,,0.00,,2013-03-06 02:21:00,
2013-03-05 18:31:00,44.0,38.0,29.73,West,260,0.0,1.0,78,0.00,,,0.00,,2013-03-06 02:31:00,
2013-03-05 18:41:00,44.0,38.0,29.73,West,260,0.0,1.0,78,0.00,,,0.00,,2013-03-06 02:41:00,
2013-03-05 18:52:00,44.0,38.0,29.73,West,260,0.0,0.0,78,0.00,,,0.00,,2013-03-06 02:52:00,
2013-03-05 19:01:00,43.0,37.0,29.73,West,260,0.0,0.0,79,0.00,,,0.00,,2013-03-06 03:01:00,
2013-03-05 19:11:00,43.0,37.0,29.73,West,260,0.0,0.0,79,0.00,,,0.00,,2013-03-06 03:11:00,
2013-03-05 19:21:00,43.0,37.0,29.74,West,260,0.0,0.0,79,0.00,,,0.00,,2013-03-06 03:21:00,
2013-03-05 19:31:00,43.0,37.0,29.74,West,260,0.0,1.0,80,0.00,,,0.00,,2013-03-06 03:31:00,
2013-03-05 19:41:00,43.0,37.0,29.74,West,260,0.0,1.0,80,0.00,,,0.00,,2013-03-06 03:41:00,
2013-03-05 19:52:00,42.0,37.0,29.73,West,259,0.0,2.0,81,0.00,,,0.00,,2013-03-06 03:52:00,
2013-03-05 20:01:00,42.0,37.0,29.73,West,259,0.0,1.0,81,0.00,,,0.00,,2013-03-06 04:01:00,
2013-03-05 20:11:00,42.0,37.0,29.73,West,259,0.0,1.0,81,0.00,,,0.00,,2013-03-06 04:11:00,
2013-03-05 20:21:00,42.0,37.0,29.73,West,259,0.0,2.0,82,0.00,,,0.00,,2013-03-06 04:21:00,
2013-03-05 20:31:00,41.0,36.0,29.73,West,259,0.0,0.0,82,0.00,,,0.00,,2013-03-06 04:31:00,
2013-03-05 20:41:00,41.0,36.0,29.73,West,259,0.0,0.0,82,0.00,,,0.00,,2013-03-06 04:41:00,
2013-03-05 20:52:00,41.0,36.0,29.73,West,259,0.0,0.0,82,0.00,,,0.00,,2013-03-06 04:52:00,
2013-03-05 21:01:00,41.0,36.0,29.72,West,260,0.0,0.0,83,0.00,,,0.00,,2013-03-06 05:01:00,
2013-03-05 21:11:00,41.0,36.0,29.72,West,260,0.0,0.0,83,0.00,,,0.00,,2013-03-06 05:11:00,
2013-03-05 21:22:00,41.0,37.0,29.72,West,259,0.0,0.0,84,0.00,,,0.00,,2013-03-06 05:22:00,
2013-03-05 21:32:00,40.0,36.0,29.72,West,260,0.0,0.0,84,0.00,,,0.00,,2013-03-06 05:32:00,
2013-03-05 21:42:00,40.0,36.0,29.72,West,260,0.0,0.0,84,0.00,,,0.00,,2013-03-06 05:42:00,
2013-03-05 21:52:00,40.0,36.0,29.72,West,260,0.0,0.0,84,0.00,,,0.00,,2013-03-06 05:52:00,
2013-03-05 22:01:00,40.0,36.0,29.71,West,259,0.0,0.0,84,0.00,,,0.00,,2013-03-06 06:01:00,
2013-03-05 22:11:00,40.0,36.0,29.71,West,259,0.0,0.0,84,0.00,,,0.00,,2013-03-06 06:11:00,
2013-03-05 22:22:00,40.0,36.0,29.71,West,260,0.0,0.0,85,0.00,,,0.00,,2013-03-06 06:22:00,
2013-03-05 22:31:00,39.0,35.0,29.71,West,259,0.0,1.0,85,0.00,,,0.00,,2013-03-06 06:31:00,
2013-03-05 22:41:00,39.0,35.0,29.71,West,259,0.0,1.0,85,0.00,,,0.00,,2013-03-06 06:41:00,
2013-03-05 22:52:00,39.0,35.0,29.70,West,260,0.0,0.0,86,0.00,,,0.00,,2013-03-06 06:52:00,
2013-03-05 23:01:00,39.0,35.0,29.70,West,259,0.0,0.0,86,0.00,,,0.00,,2013-03-06 07:01:00,
2013-03-05 23:11:00,39.0,35.0,29.70,West,259,0.0,0.0,86,0.00,,,0.00,,2013-03-06 07:11:00,
2013-03-05 23:22:00,39.0,35.0,29.69,West,260,0.0,0.0,86,0.00,,,0.00,,2013-03-06 07:22:00,
2013-03-05 23:31:00,39.0,35.0,29.68,West,260,0.0,0.0,86,0.00,,,0.00,,2013-03-06 07:31:00,
2013-03-05 23:41:00,39.0,35.0,29.68,West,260,0.0,0.0,86,0.00,,,0.00,,2013-03-06 07:41:00,
2013-03-05 23:52:00,39.0,35.0,29.68,West,260,0.0,0.0,86,0.00,,,0.00,,2013-03-06 07:52:00,